Regional Weather Roundup
Issued by NWS Spokane, WA

Home | Current Version | Previous Version | Text Only | Print | Product List | Glossary On
Versions: 1 2 3 4 5 6 7 8 9 10 11 12 13 14 15 16 17 18 19 20 21 22 23 24 25 26 27 28 29 30 31 32 33 34 35 36 37 38 39 40 41 42 43 44 45 46 47 48 49 50
750
NZUS01 KOTX 291410
RWROTX
EASTERN WASHINGTON/NORTHERN IDAHO ROUNDUP
NATIONAL WEATHER SERVICE, SPOKANE WA
700 AM PDT FRI APR 29 2016

Note: "fair" indicated few or no clouds below 12,000 feet with no
significant weather and/or obstructions to visibility.

...NORTHEAST WASHINGTON AND NORTHERN IDAHO PANHANDLE...

CITY           SKY/WX    TMP DP  RH WIND       PRES   REMARKS
SPOKANE INTL   CLOUDY    49  36  61 CALM      29.93F
SPOKANE DOWNTO CLOUDY    50  41  71 CALM      29.94F
COEUR D ALENE  CLOUDY    48  37  66 E8        29.92S
DEER PARK      CLOUDY    47  40  76 CALM      29.95R
SANDPOINT      CLOUDY    45  37  76 SE3       29.94S

...SOUTHEAST WASHINGTON AND SOUTHERN IDAHO PANHANDLE...

CITY           SKY/WX    TMP DP  RH WIND       PRES   REMARKS
WALLA WALLA    CLOUDY    49  43  80 S12       29.96R
PULLMAN/MOSCOW LGT RAIN  45  41  86 CALM      29.95S
LEWISTON       LGT RAIN  48  46  93 W5        29.95S
LOWELL           N/A     46  44  93 CALM      29.96S

...COLUMBIA BASIN...

CITY           SKY/WX    TMP DP  RH WIND       PRES   REMARKS
EPHRATA        CLOUDY    50  47  89 N9        29.92R
MOSES LAKE     PTSUNNY   50  46  86 E6        29.92R
TRI CITIES     MOSUNNY   51  41  68 SW8       29.94F
HERMISTON      SUNNY     51  40  65 SW12      29.95F
PENDLETON      MOSUNNY   49  37  63 W16       29.95F

...EAST SLOPES CASCADES...

CITY           SKY/WX    TMP DP  RH WIND       PRES   REMARKS
THE DALLES     CLOUDY    54  40  59 W10       30.01R
YAKIMA         MOSUNNY   50  37  62 W5        29.95S
ELLENSBURG     MOSUNNY   49  39  68 NW20      29.94S
STAMPEDE PASS  LGT RAIN  35  33  92 VRB5      29.99S VSB 1/4
WENATCHEE      PTSUNNY   51  38  60 N9        29.94R
OMAK           LGT RAIN  51  47  86 MISG      29.95S

...SOUTHERN BRITISH COLUMBIA...

CITY           SKY/WX    TMP DP  RH WIND       PRES   REMARKS
PENTICTON      PTSUNNY   45  39  81 N5        29.94S
CASTLEGAR      CLOUDY    50  45  81 CALM      29.93S
CRANBROOK      LGT RAIN  45  36  70 VRB5      29.93F

...WESTERN MONTANA...

CITY           SKY/WX    TMP DP  RH WIND       PRES   REMARKS
MISSOULA       CLOUDY    38  35  89 NW3       29.95S

...NEIGHBORING CITIES...

CITY           SKY/WX    TMP DP  RH WIND       PRES   REMARKS
SEATTLE        CLOUDY    49  42  77 S6        30.09R
CALGARY        PTSUNNY   39  30  70 S15       29.93F



USA.gov is the U.S. government's official web portal to all federal, state and local government web resources and services.